Oberpfaffenhofen, Germany

11:21 PM CEST on July 26, 2017 (GMT +0200)
Oberpfaffenhofen

Weather History for EDMO - July, 2013

Change the Weather History Date:

Friday, July 26, 2013

  Actual Average Record
Temperature  
Mean Temperature 73 °F -  
Max Temperature 89 °F 67 °F 89 °F (2013)
Min Temperature 57 °F 61 °F 42 °F (2011)
Cooling Degree Days 8    
Growing Degree Days 23 (Base 50)    
Moisture  
Dew Point 54 °F    
Average Humidity 45    
Maximum Humidity 94    
Minimum Humidity 25    
Precipitation  
Precipitation 0.00 in - - ()
Sea Level Pressure  
Sea Level Pressure 30.04 in    
Wind  
Wind Speed 4 mph ()    
Max Wind Speed 12 mph    
Max Gust Speed -    
Averages and records for this station are not official NWS values.
T = Trace of Precipitation, MM = Missing Value Source: Averaged Metar Reports

Daily Weather History Graph

Daily Weather History Graph

Search for Another Location

Airport or City:

Trip Planner

Search our weather history database for the weather conditions in past years. The results will help you decide how hot, cold, wet, or windy it might be!

Date:

Astronomy

Jul. 26, 2013 Rise Set
Actual Time 5:43 AM CEST 8:58 PM CEST
Civil Twilight 5:05 AM CEST 9:36 PM CEST
Nautical Twilight 4:16 AM CEST 10:25 PM CEST
Astronomical Twilight 3:13 AM CEST 11:27 PM CEST
Moon 10:36 PM CEST 10:25 AM CEST
Length of Visible Light 16h 30m
Length of Day
15h 15m
Waning Gibbous, 82% of the Moon is Illuminated
Jul 26
Waning Gibbous
Jul 29
Last Quarter
Aug 6
New
Aug 14
First Quarter
Aug 21
Full

Hourly Weather History & Observations

Time (CEST) Temp. Heat Index Dew Point Humidity Pressure Visibility Wind Dir Wind Speed Gust Speed Precip Events Conditions
5:50 AM 57.2 °F - 55.4 °F 94% 30.06 in - South 4.6 mph - N/A   Clear
6:20 AM 59.0 °F - 55.4 °F 88% 30.09 in - South 4.6 mph - N/A   Clear
6:50 AM 60.8 °F - 59.0 °F 94% 30.09 in - Variable 1.2 mph - N/A   Clear
7:20 AM 64.4 °F - 60.8 °F 88% 30.09 in - SSW 2.3 mph - N/A   Clear
7:50 AM 68.0 °F - 60.8 °F 78% 30.09 in - SW 3.5 mph - N/A   Clear
8:20 AM 71.6 °F - 60.8 °F 69% 30.09 in - Variable 1.2 mph - N/A   Clear
8:50 AM 75.2 °F - 60.8 °F 61% 30.09 in - Variable 1.2 mph - N/A   Clear
9:20 AM 77.0 °F - 59.0 °F 54% 30.06 in - Variable 3.5 mph - N/A   Clear
9:50 AM 77.0 °F - 59.0 °F 54% 30.06 in - Variable 3.5 mph - N/A   Clear
10:20 AM 78.8 °F - 57.2 °F 47% 30.06 in - Variable 2.3 mph - N/A   Clear
10:50 AM 80.6 °F 80.8 °F 57.2 °F 45% 30.06 in - Variable 2.3 mph - N/A   Clear
11:20 AM 82.4 °F 82.0 °F 57.2 °F 42% 30.06 in - Variable 2.3 mph - N/A   Clear
11:50 AM 82.4 °F 82.0 °F 57.2 °F 42% 30.06 in - Variable 3.5 mph - N/A   Clear
12:20 PM 82.4 °F 81.7 °F 55.4 °F 39% 30.06 in - Variable 4.6 mph - N/A   Clear
12:50 PM 84.2 °F 82.8 °F 53.6 °F 35% 30.06 in - NNW 4.6 mph - N/A   Clear
1:20 PM 86.0 °F 84.5 °F 55.4 °F 35% 30.04 in - Variable 3.5 mph - N/A   Clear
1:50 PM 86.0 °F - 51.8 °F 31% 30.04 in - Variable 5.8 mph - N/A   Clear
2:20 PM 86.0 °F - 50.0 °F 29% 30.04 in - North 6.9 mph - N/A   Clear
2:50 PM 87.8 °F - 51.8 °F 29% 30.04 in - Variable 8.1 mph - N/A   Clear
3:20 PM 87.8 °F - 48.2 °F 25% 30.04 in - North 8.1 mph - N/A   Clear
3:50 PM 87.8 °F - 48.2 °F 25% 30.01 in - NNE 8.1 mph - N/A   Clear
4:20 PM 89.6 °F - 50.0 °F 26% 30.01 in - NE 10.4 mph - N/A   Clear
4:50 PM 87.8 °F - 50.0 °F 27% 30.01 in - NNE 11.5 mph - N/A   Clear
5:20 PM 87.8 °F - 50.0 °F 27% 30.01 in - NE 10.4 mph - N/A   Clear
5:50 PM 87.8 °F - 50.0 °F 27% 30.01 in - NNE 10.4 mph - N/A   Clear
6:20 PM 87.8 °F - 50.0 °F 27% 30.01 in - NE 11.5 mph - N/A   Clear
6:50 PM 86.0 °F - 50.0 °F 29% 29.98 in - NNE 11.5 mph - N/A   Clear
7:20 PM 86.0 °F - 50.0 °F 29% 29.98 in - NNE 11.5 mph - N/A   Clear
7:50 PM 84.2 °F - 51.8 °F 33% 29.98 in - ENE 9.2 mph - N/A   Clear
8:20 PM 82.4 °F - 51.8 °F 35% 30.01 in - East 6.9 mph - N/A   Clear